EHI
0 0 0 0 0 0 0 0 0 0 0 0 0 0 0 0 0 0 0 0 0 0 0 0 0 0 0 0 0 0 0 0 0 0 0 0 0 0 0 0 0 0 0
0 0 0 0 0 0 0 0 0 0 0 0 0 0 0 0 0 0 0 0 0 0 0 0 0 0 0 0 0 0 0 0 0 0 0 0 0 0 0 0 0 0 0
0 0 0 0 0 0 0 0 0 0 0 0 0 0 0 0 0 0 0 0 0 0 0 0 0 0 0 0 0 0 0 0 0 0 0 0 0 0 0 0 0 0 0
0 0 0 0 0 0 0 0 0 0 0 0 0 0 0 0 0 0 0 0 0 0 0 0 0 0 0 0 0 0 0 0 0 0 0 0 0 0 0 0 0 0 0
0 0 0 0 0 0 0 0 0 0 0 0 0 0 0 0 0 0 0 0 0 0 0 0 0 0 0 0 0 0 0 0 0 0 0 0 0 0 0 0 0 0 0
0 0 0 0 0 0 0 0 0 0 0 0 0 0 0 0 0 0 0 0 0 0 0 0 0 0 0 0 0 0 0 0 0 0 0 0 0 0 0 0 0 0 0
0 0 0 0 0 0 0 0 0 0 0 0 0 0 0 0 0 0 0 0 0 0 0 0 0 0 0 0 0 0 0 0 0 0 0 0 0 0 0 0 0 0 0
0 0 0 0 0 0 0 0 0 0 0 0 0 0 0 0 0 0 0 0 0 0 0 0 0 0 0 0 0 0 0 0 0 0 0 0 0 0 0 0 0 0 0
0 0 0 0 0 0 0 0 0 0 0 0 0 0 0 0 0 0 0 0 0 0 0 0 0 0 0 0 0 0 0 0 0 0 0 0 0 0 0 0 0 0 0
0 0 0 0 0 0 0 0 0 0 0 0 0 0 0 0 0 0 0 0 0 0 0 0 0 0 0 0 0 0 0 0 0 0 0 0 0 0 0 0 0 0 0
0 0 0 0 0 0 0 0 0 0 0 0 0 0 0 0 0 0 0 0 0 0 0 0 0 0 0 0 0 0 1 0 0 0 0 0 0 0 0 0 0 0 0
0 0 0 0 0 0 0 0 0 0 0 0 0 0 0 0 0 0 0 0 0 0 0 0 0 0 0 0 0 0 0 0 0 0 0 0 0 0 0 0 0 0 0
0 0 0 0 0 0 0 0 0 0 0 0 0 0 0 0 0 0 0 0 0 0 0 0 0 0 0 0 0 0 0 0 0 0 0 0 0 0 0 0 0 0 0
0 0 0 0 0 0 0 0 0 0 0 0 0 0 0 0 0 0 0 0 0 0 0 0 0 0 0 0 0 0 0 0 0 0 0 0 0 0 0 0 0 0 0
0 0 0 0 0 0 0 0 0 0 0 0 0 0 0 0 0 0 0 0 0 0 0 0 0 0 0 0 0 0 0 0 0 0 0 0 0 0 0 0 0 0 0
0 0 0 0 0 0 0 0 0 0 0 0 0 0 0 0 0 0 0 0 0 0 0 0 0 0 0 0 0 0 0 0 0 0 0 0 0 0 0 0 0 0 0
0 0 0 0 0 0 0 0 0 0 0 0 0 0 0 0 0 0 0 0 0 0 0 0 0 0 0 0 0 0 0 0 0 0 0 0 0 0 0 0 0 0 0
0 0 0 0 0 0 0 0 0 0 0 0 0 0 0 0 0 0 0 0 0 0 0 0 0 0 0 0 0 0 0 0 0 0 0 0 0 0 0 0 0 0 0
0 0 0 0 0 0 0 0 0 0 0 0 0 0 0 0 0 0 0 0 0 0 0 0 0 0 0 0 0 0 0 0 0 0 0 0 0 0 0 0 0 0 0
0 0 0 0 0 0 0 0 0 0 0 0 0 0 0 0 0 0 0 0 0 0 0 0 0 0 0 0 0 0 0 0 0 0 0 0 0 0 0 0 0 0 0
0 0 0 0 0 0 0 0 0 0 0 0 0 0 0 0 0 0 0 0 0 0 0 0 0 0 0 0 0 0 0 0 0 0 0 0 0 0 0 0 0 0 0
0 0 0 0 0 0 0 0 0 0 0 0 0 0 0 0 0 0 0 0 0 0 0 0 0 0 0 0 0 0 0 0 0 0 0 0 0 0 0 0 0 0 0
0 0 0 0 0 0 0 0 0 0 0 0 0 0 0 0 0 0 0 0 0 0 0 0 0 0 0 0 0 0 0 0 0 0 0 0 0 0 0 0 0 0 0
0 0 0 0 0 0 0 0 0 0 0 0 0 0 0 0 0 0 0 0 0 0 0 0 0 0 0 0 0 0 0 0 0 0 0 0 0 0 0 0 0 0 0
0 0 0 0 0 0 0 0 0 0 0 0 0 0 0 0 0 0 0 0 0 0 0 0 0 0 0 0 0 0 0 0 0 0 0 0 0 0 0 0 0 0 0
0 0 0 0 0 0 0 0 0 0 0 0 0 0 0 0 0 0 0 0 0 0 0 0 0 0 0 0 0 0 0 0 0 0 0 0 0 0 0 0 0 0 0
Wind_Speed
2 2 1 1 1 1 1 1 1 1 1 1 0 2 2 2 1 1 1 3 5 5 6 8 8 9 9 9 8 8 8 9 8 7 8 8 9 9 9 9 9 9 9
3 2 2 1 1 1 1 1 1 1 1 1 1 0 1 1 1 1 1 1 3 4 5 6 7 8 8 9 9 9 9 9 9 8 8 8 8 9 9 9 9 9 9
3 3 2 1 1 1 2 2 2 2 1 1 1 1 1 0 0 1 1 1 1 2 4 5 6 6 7 8 9 9 9 9 9 9 8 8 8 9 9 9 9 9 9
4 3 2 2 1 2 2 2 2 2 1 1 1 1 1 1 1 1 1 1 1 1 2 4 5 6 8 8 8 9 9 9 9 9 9 9 9 9 9 9 10 10 9
4 4 3 2 2 2 2 2 2 1 1 1 0 1 1 1 1 1 1 1 1 1 1 2 4 5 7 8 7 8 9 9 9 10 11 11 11 10 10 10 10 10 10
5 4 3 3 3 2 2 2 2 2 1 1 1 2 2 2 1 1 1 1 0 1 1 2 1 2 5 5 6 7 8 8 9 10 11 11 12 11 11 11 11 12 12
5 4 3 3 3 3 2 3 2 3 2 1 2 2 3 3 3 2 2 1 2 1 1 1 1 1 1 2 3 6 8 8 8 9 9 10 11 10 11 12 12 12 13
5 4 4 3 3 3 3 2 2 2 2 2 2 2 2 3 3 3 2 2 2 2 2 1 0 0 0 1 2 4 5 6 7 8 8 9 9 9 10 11 11 12 13
5 4 5 4 3 3 3 2 2 4 3 2 2 3 3 2 1 3 3 4 3 3 2 2 2 1 1 1 1 2 3 2 4 7 8 8 9 10 10 10 11 12 13
5 5 5 4 4 3 3 2 2 2 4 2 2 2 2 2 2 1 2 3 4 4 4 3 3 3 2 1 1 2 3 3 2 2 3 5 7 8 9 10 11 11 12
4 4 5 4 4 3 3 3 3 3 2 3 2 2 3 3 2 2 1 3 3 3 4 4 3 3 3 2 2 3 3 3 3 3 3 2 4 6 7 8 11 11 12
2 4 5 4 4 3 3 3 3 5 3 4 3 2 2 2 2 2 2 1 2 2 3 3 3 3 3 3 3 5 4 4 4 4 4 4 4 4 6 8 9 11 12
3 3 4 4 4 3 4 4 4 4 4 4 3 2 2 2 2 2 2 1 1 2 3 2 3 3 3 2 3 6 5 5 4 4 4 5 5 5 5 6 8 9 11
4 5 5 5 4 5 5 4 4 3 4 4 4 4 2 2 1 2 2 3 1 2 2 3 2 2 3 3 3 5 4 5 5 5 5 5 5 6 6 7 7 8 8
5 6 5 5 5 5 5 5 4 4 4 4 4 3 2 1 2 1 2 2 3 1 1 2 2 3 3 2 4 3 3 5 6 5 5 5 6 6 6 7 7 7 7
6 7 6 5 5 5 5 4 4 4 4 3 2 3 3 2 2 2 2 2 2 3 1 1 2 2 3 3 4 3 3 5 5 6 5 5 5 6 6 6 6 7 7
7 7 7 6 6 5 5 4 4 4 4 3 3 3 3 2 2 2 2 2 2 2 2 2 2 2 3 3 4 3 3 3 3 5 5 5 4 5 5 5 6 6 7
7 7 7 6 6 6 5 5 5 5 5 4 4 3 3 2 2 2 2 2 2 2 2 2 2 2 3 3 3 4 3 3 3 5 6 5 5 5 5 6 7 7 7
7 7 7 7 6 6 6 5 5 5 4 4 4 4 4 3 3 2 2 2 2 2 2 2 2 2 2 2 3 3 4 3 4 5 6 6 6 7 7 7 8 8 8
8 7 7 7 6 6 6 5 5 5 4 4 4 4 4 5 5 4 3 3 3 2 2 2 3 3 3 3 2 3 4 3 4 5 5 6 6 8 9 9 9 10 9
8 7 7 6 5 5 6 6 6 6 5 4 4 4 5 7 7 6 4 4 4 3 3 3 3 3 4 3 3 2 4 5 5 3 4 4 5 5 7 8 10 10 10
7 7 7 7 6 6 8 10 7 5 5 5 5 5 5 6 7 9 10 9 7 6 5 4 4 5 6 5 4 4 4 4 5 2 3 5 4 7 7 7 9 12 12
7 7 7 7 7 7 9 10 10 6 5 5 5 5 4 4 5 4 6 7 8 11 11 6 7 8 7 6 5 5 5 6 7 5 3 7 6 8 8 8 12 13 13
7 7 7 7 7 7 10 10 10 6 5 6 6 6 6 6 5 5 5 5 6 7 8 8 9 10 9 8 7 7 7 7 8 6 5 6 7 7 8 7 10 13 13
7 7 6 8 8 8 10 10 9 5 5 6 6 6 7 7 8 7 6 6 7 8 8 10 12 12 13 13 9 5 6 6 7 7 5 5 6 6 6 7 8 11 12
8 8 7 7 8 8 9 11 10 4 5 5 5 5 8 9 9 8 7 7 8 8 6 5 6 8 9 10 11 10 8 7 7 7 5 5 5 4 6 5 5 6 7
Wind_Direction
156 152 145 137 131 119 122 113 102 93 80 66 96 134 143 150 173 187 234 210 197 198 202 197 191 190 189 189 191 191 190 187 183 182 182 180 178 179 179 177 172 169 168
157 153 157 155 147 140 137 133 133 116 99 82 50 88 135 155 176 199 221 234 216 210 213 213 206 205 204 202 199 202 201 197 193 193 193 192 190 188 189 188 184 179 177
156 155 159 161 157 137 126 104 96 89 87 72 35 11 27 302 265 239 227 225 246 236 231 225 218 217 220 219 212 210 208 204 200 201 203 203 200 197 197 197 194 189 187
155 150 150 155 135 118 115 115 98 89 77 72 41 3 1 331 294 283 261 234 238 255 263 250 237 227 228 231 228 222 215 211 208 207 210 211 209 208 205 204 201 198 196
146 138 139 135 126 115 113 129 98 116 114 91 77 40 8 348 313 310 285 265 244 240 255 282 269 247 238 238 235 233 225 219 219 217 218 218 216 214 211 209 209 205 203
137 131 128 130 127 116 108 107 109 90 91 94 73 54 22 11 19 10 339 335 289 247 236 254 281 272 261 250 239 239 240 233 229 227 226 226 224 219 215 214 214 212 209
137 132 128 125 129 130 141 141 117 95 66 65 87 51 25 30 38 23 15 19 9 343 303 265 261 258 293 300 273 248 241 240 236 231 234 235 232 228 222 219 219 217 216
139 140 134 135 132 123 117 121 127 116 70 49 111 100 49 18 14 21 23 37 27 24 30 21 16 327 312 336 318 296 268 243 234 232 232 238 239 237 235 230 225 222 222
133 133 139 133 129 126 129 127 133 130 121 60 56 129 135 169 345 359 20 31 26 31 21 16 30 30 33 17 332 323 321 301 249 238 232 232 235 237 239 239 237 233 228
132 132 131 130 129 126 126 127 117 118 126 121 72 54 88 136 134 69 360 9 24 32 22 23 29 29 27 21 358 345 352 355 343 298 262 244 238 234 237 242 245 244 239
124 129 130 130 130 125 122 114 108 104 109 127 128 115 87 71 75 123 77 353 7 16 21 22 32 34 31 28 15 12 10 13 16 9 356 323 266 244 241 247 254 254 252
113 123 128 128 128 124 122 118 109 104 99 103 105 110 126 124 117 114 123 51 357 347 0 17 29 26 25 21 13 13 18 18 8 0 356 349 329 300 269 258 261 261 260
144 152 140 136 132 129 124 118 109 106 108 109 108 97 97 106 127 125 120 115 36 343 341 0 10 13 18 15 3 3 8 5 357 348 341 331 322 310 302 293 280 273 267
160 156 146 142 140 138 130 121 111 111 109 109 107 106 99 92 110 130 136 136 97 8 355 338 331 353 359 355 351 356 350 346 343 337 329 321 314 308 299 294 293 288 277
152 150 147 144 143 138 134 129 119 117 116 109 114 113 104 93 92 102 124 140 141 137 298 313 313 325 337 333 341 343 335 334 337 331 324 319 316 314 308 299 292 289 283
150 150 151 149 147 143 139 131 128 132 125 123 128 122 115 116 103 103 117 124 133 149 197 263 277 302 318 332 350 344 328 326 326 324 321 319 316 312 306 299 294 289 285
157 159 161 157 155 153 150 142 144 146 141 141 145 144 142 141 130 131 131 131 135 147 184 263 267 287 300 318 328 330 323 318 314 314 315 314 314 312 308 303 297 291 287
164 164 162 161 164 162 161 161 164 163 162 165 168 161 168 160 154 157 154 158 167 180 188 239 274 286 282 294 302 306 312 315 307 303 301 302 306 307 302 300 298 291 285
162 162 164 167 169 169 173 177 174 175 180 182 182 185 189 175 189 191 189 190 193 190 194 221 263 271 278 290 302 298 298 297 300 296 288 288 294 299 297 293 292 288 283
164 168 173 175 175 176 179 180 179 182 189 196 198 202 203 201 209 207 208 210 204 202 203 227 259 271 271 276 271 284 298 294 298 297 286 282 282 288 288 286 285 282 279
174 173 171 176 177 179 188 186 186 190 194 204 213 218 223 222 222 216 214 211 202 212 222 236 258 268 273 273 271 268 284 297 289 270 283 283 285 287 286 280 276 273 274
172 171 179 182 187 199 200 196 189 191 197 206 220 230 238 240 240 235 234 225 208 213 226 231 248 257 268 265 264 261 272 293 293 263 270 287 281 280 279 274 269 269 271
177 180 188 189 199 213 211 206 203 193 203 212 220 230 243 243 237 243 251 249 236 231 223 222 246 254 260 256 253 265 259 259 267 272 268 283 278 276 277 272 265 266 267
183 189 194 197 203 220 217 215 212 205 212 221 225 227 236 251 247 238 249 258 257 250 237 232 240 252 256 258 247 257 271 274 271 261 231 267 278 276 281 277 266 260 262
189 193 195 198 206 222 219 217 207 200 220 234 236 233 233 246 250 240 239 254 269 271 255 239 239 251 259 261 254 255 256 257 275 277 217 237 269 277 277 275 269 256 256
194 195 203 205 209 219 220 217 204 200 223 240 246 242 236 239 249 239 230 240 257 268 274 278 267 265 266 267 252 236 240 250 263 275 240 218 258 271 281 265 265 267 264